CAPE
0 1 3 0 0 3 4 3 0 0 0 0 0 0 0 0 0 0 0 10 0 4 0 0 0 0 0 41 16 11 42 47 33 5 0 0 0 0 0 0 0 0 0 0 3 64 15 0 827 381 388 1071 1499 1752 2001 2032 2244 3390 2581 2762 2663 2076 1422 1224 1136 911 1193 1301 1187 1182 1284 1487 1875 1584 1765 1842 1594 1303 1598 1759 1902 1851 1855 1695 1690 1519
0 0 1 1 2 1 0 0 0 0 0 0 0 0 0 0 0 0 1 12 0 0 0 0 1 2 19 8 3 14 39 39 6 10 27 0 0 0 0 0 0 0 0 0 0 33 367 6 173 937 619 1115 1100 1019 1288 1913 2025 2380 2357 2310 2301 2021 1422 1217 1229 1346 1326 1701 1521 1348 1359 1490 1999 1662 1596 1588 1690 1376 1611 1764 1888 1851 1767 1714 1729 1485
0 0 0 0 0 0 1 2 1 0 0 1 1 0 0 0 4 0 0 0 7 0 0 0 0 1 5 8 12 9 8 21 41 47 58 2 22 0 0 0 0 0 0 0 0 58 314 90 3 591 443 703 678 844 1053 1399 1952 2197 2885 2534 2106 1737 1436 1273 1404 1409 1375 1685 1624 1270 1320 1506 1918 1658 1589 1496 1676 1617 1748 1817 1976 2016 1802 1859 1689 1487
0 0 9 2 11 2 1 4 1 10 10 13 8 1 0 15 2 0 0 0 2 1 7 10 5 18 58 38 18 24 34 64 52 43 57 50 38 22 2 0 0 0 6 38 9 1 59 346 5 57 103 138 331 557 878 1232 1630 2033 3481 2456 2058 1878 1742 1480 1210 1331 1501 1749 1616 1351 1546 1724 1666 1602 1546 1537 1725 1668 1805 1879 2249 2102 1830 1850 1654 1480
0 2 6 1 1 4 2 1 9 13 16 1 3 11 2 1 3 0 0 2 0 0 0 0 0 0 0 5 7 15 1 0 5 26 46 38 36 43 47 22 22 5 11 38 33 27 2 18 131 29 33 98 348 590 688 1244 1492 1486 3632 2755 2146 1791 1882 1704 1488 1277 1453 1733 1486 1389 1503 1204 1061 1092 1639 1461 1464 1526 1639 1707 2122 1939 1827 1727 1570 1478
32 0 11 2 1 10 2 10 12 0 0 3 18 0 0 0 0 0 0 0 0 0 0 0 0 0 0 7 7 60 48 9 0 15 24 66 17 10 54 45 40 21 10 59 43 36 45 9 12 62 91 34 120 688 1117 1466 1822 1619 2686 3096 2694 2270 1898 1993 1683 1375 1431 1491 1417 1424 1333 1150 814 933 1119 1584 1329 1416 1542 1527 1780 1765 1754 1639 1576 1535
4 4 3 5 4 0 0 0 0 2 0 0 1 0 0 0 0 1 0 0 0 0 0 2 0 2 0 0 22 5 4 24 19 28 18 19 1 1 0 0 19 42 83 82 61 49 28 54 25 28 26 2 0 101 1042 1500 1794 1882 1989 3298 2954 2562 1946 1951 1830 1455 1338 1463 1382 1424 1097 923 832 1005 1277 1303 1462 1472 1456 1528 1692 1602 1691 1506 1572 1572
0 2 2 8 4 1 0 0 0 0 0 0 0 1 0 0 1 2 1 2 0 0 0 3 7 0 3 6 4 3 10 3 24 28 36 13 5 3 2 18 44 54 94 156 105 68 66 42 36 39 35 17 0 47 588 1272 1490 1863 1662 3710 3229 2694 2216 1964 1980 1570 1270 1569 1346 1208 856 624 880 877 873 956 1671 1730 1763 1750 1660 1391 1616 1593 1688 1542
0 0 0 0 2 0 0 0 1 4 0 0 1 2 1 2 1 0 2 0 0 0 0 1 9 5 0 3 11 8 10 0 8 7 7 29 15 4 1 0 2 54 72 117 69 98 74 78 36 22 48 54 23 44 544 820 1123 1780 1903 3408 3284 2774 2483 2389 2143 1576 1419 1542 1506 1218 801 974 933 1183 945 863 1072 1864 1913 1975 1806 1617 1638 1714 1683 1720
0 0 0 0 0 0 0 0 0 4 3 0 0 0 1 1 1 2 0 0 0 0 0 8 16 1 0 0 4 28 0 0 1 0 1 0 0 1 0 0 0 51 49 62 71 96 93 86 101 56 38 104 83 102 482 794 1180 1717 2052 1907 3626 3180 2787 2674 2174 1655 1513 1495 1494 1192 911 974 1141 1182 956 785 944 1144 2173 2024 1834 1688 1605 1760 1710 1761
0 0 0 0 0 0 3 0 0 3 2 2 3 1 1 0 0 0 0 4 1 1 0 0 3 19 0 0 28 0 0 0 0 0 0 0 0 53 58 26 20 39 37 116 142 119 106 109 115 154 83 57 110 159 395 802 1114 1834 2091 1883 2636 3614 3042 2813 2289 1802 1623 1482 1510 1227 1060 983 1045 1030 908 872 1016 1340 2073 2084 1797 1812 1703 1836 1840 1866
0 0 5 2 0 0 0 0 0 1 0 0 1 0 0 0 0 4 0 2 1 0 0 0 3 0 2 0 10 0 0 0 0 3 5 0 0 2 14 0 0 5 26 98 141 43 117 135 152 153 142 102 95 199 295 566 777 1452 1941 1916 1811 3160 3214 2778 2392 1900 1677 1601 1595 1280 1095 1133 1018 828 754 1026 1423 1973 2052 2056 1856 2023 1871 1907 2016 2001
0 0 9 0 0 0 0 1 0 0 4 4 0 18 2 3 1 1 5 26 20 0 4 0 0 0 0 1 0 0 0 0 0 0 1 0 1 0 0 0 86 2 22 28 63 70 190 170 186 136 124 133 146 292 554 535 751 1147 1729 1962 1840 2606 3386 2860 2426 2015 1768 1627 1532 1321 1153 1060 1087 1189 1198 1571 1899 1974 1968 1977 1902 2062 1993 2047 2019 2047
0 2 0 0 23 0 1 0 0 0 0 1 0 3 7 7 10 5 0 2 3 3 4 7 2 3 0 0 0 0 0 0 0 10 2 1 0 0 0 1 1 7 35 182 109 77 196 367 201 188 142 141 193 153 502 912 863 1073 1367 1855 1784 1587 3573 2995 2384 2066 1730 1590 1502 1200 957 1294 1236 1529 1867 1940 1946 2112 2026 1986 1966 2097 2127 2143 2113 2123
1 1 0 0 0 0 2 1 0 0 0 0 2 2 0 2 5 4 6 19 6 0 0 8 0 4 0 2 0 0 0 1 0 0 0 0 0 3 110 1 0 0 0 0 57 108 228 433 418 281 234 190 190 198 156 620 953 950 1152 1587 1638 1584 3202 2960 2448 1978 1847 1771 1627 1576 1211 902 1116 1827 1980 2073 2084 2209 2156 2097 2018 2144 2339 2268 2321 2244
2 0 2 0 0 4 7 8 0 0 0 1 0 1 4 2 0 10 2 28 12 8 1 1 7 0 0 0 0 0 0 0 0 0 0 0 0 0 0 16 32 2 0 0 6 214 314 293 407 424 314 277 231 244 278 252 678 1005 1139 1370 1531 1521 2920 2722 2398 2093 1964 1836 1741 1503 1252 1180 1416 1870 2215 2262 2071 2207 2300 2240 2176 2284 2420 2433 2370 2336
0 4 0 0 0 9 5 4 0 0 4 0 0 0 0 0 0 0 3 9 18 20 31 4 8 3 9 3 0 0 0 0 0 0 0 0 0 0 0 0 1 100 32 0 0 24 297 290 272 368 362 403 414 482 462 298 313 817 1167 1314 1444 1542 2556 2485 2329 2004 1926 1866 1784 1575 1284 1236 1225 1541 2058 2173 2375 2296 2312 2324 2336 2341 2449 2531 2578 2537
2 0 8 10 6 2 1 2 0 0 0 0 1 0 0 0 0 8 16 0 15 29 17 2 5 6 18 1 1 0 0 0 0 0 2 1 0 0 0 0 0 25 11 172 4 42 174 275 390 504 503 461 549 527 646 770 654 844 1224 1379 1414 1456 2308 2439 2177 2026 1950 1901 1777 1592 1307 1252 1202 1264 1770 2162 2580 2564 2437 2502 2503 2314 2505 2637 2733 2641
3 1 4 2 0 0 0 0 3 0 0 0 0 26 0 1 3 0 4 20 21 3 22 4 2 7 9 8 0 1 3 0 0 2 0 0 0 0 0 0 0 0 44 68 143 56 252 427 271 405 526 405 588 661 612 586 948 1164 1316 1536 1352 1650 2446 2289 2117 1796 1749 1903 1827 1605 1354 1256 1249 1228 1486 2014 2379 2588 2556 2543 2627 2349 2562 2814 2668 2739
1 6 0 6 7 0 0 0 4 0 0 0 0 0 0 1 1 3 1 3 15 27 9 0 1 12 11 6 0 0 1 0 0 0 0 3 0 0 0 0 0 0 13 65 95 192 70 244 230 268 580 488 528 625 601 503 570 894 1341 1417 1377 1689 2668 2360 2338 1865 1797 1811 1774 1551 1354 1277 1316 1197 1248 1702 2159 2495 1984 1762 1612 1915 2785 2796 2703 2865
0 18 1 0 0 0 0 0 0 0 2 0 0 1 0 0 0 0 0 7 17 18 8 12 8 9 17 12 0 0 0 0 1 5 0 0 1 0 0 0 0 0 0 24 95 94 202 274 238 338 629 509 481 492 569 598 731 881 1114 1487 1363 1038 2467 2564 2481 2116 1940 1697 1638 1522 1409 1228 1171 1140 1151 1495 1834 1977 1971 1714 1235 1322 1498 2117 2821 2609
0 1 0 0 0 3 2 6 9 0 0 0 0 1 1 0 0 1 0 1 7 3 14 7 10 6 14 4 7 15 1 11 5 1 6 0 5 1 0 0 0 0 0 1 42 135 176 221 312 468 522 510 431 415 408 541 771 874 869 1130 1314 1396 2296 2619 2524 2372 2331 2147 1752 1580 1519 1268 1204 1150 1080 1373 1457 1335 1593 1727 1504 1379 1255 1738 1736 2640
1 0 0 1 2 7 3 2 2 0 0 0 0 0 2 0 0 2 2 0 0 0 0 16 9 0 129 50 17 46 29 23 25 6 2 2 0 6 0 2 0 0 0 0 2 87 167 240 460 518 466 460 418 425 550 903 865 1193 1724 1606 1371 1073 1796 2657 2621 2495 2540 2210 1991 1907 1612 1360 1256 1193 1237 1109 1154 1101 1088 1403 1252 1373 1181 1220 1722 1959
0 2 1 0 1 0 8 3 1 2 2 0 0 0 0 1 1 2 1 0 2 1 21 3 3 0 16 26 18 20 46 44 26 8 4 2 2 1 1 0 0 0 0 0 0 129 175 271 478 465 462 421 470 548 428 370 632 1218 1512 1757 1417 1014 1423 1718 2364 2708 2312 2031 1898 1764 1499 1464 1462 1387 1314 1216 1170 1105 1013 864 980 1204 1281 1223 1166 1621
1 1 4 1 1 16 8 8 8 0 20 3 0 0 5 4 0 0 0 2 5 13 0 5 2 0 0 16 0 1 45 28 9 1 0 5 2 5 7 8 3 6 2 0 0 35 170 227 272 258 281 300 281 238 296 482 519 660 1164 936 942 1028 923 1399 2039 2471 2288 1860 1789 1608 1546 1587 1506 1401 1246 1071 933 981 1014 910 1059 1115 1098 1306 1329 1143
2 1 0 12 7 6 17 23 1 1 0 0 0 1 10 0 0 0 1 1 8 1 0 3 7 4 1 0 2 11 21 0 0 4 3 2 0 1 11 9 6 5 5 0 0 10 128 194 221 391 363 208 70 75 155 356 490 541 391 633 706 780 478 1654 2213 2414 2046 1938 1740 1598 1573 1619 1556 1359 1178 1084 1186 1062 1157 1074 1030 1179 968 1025 1349 1483
2 6 2 0 2 3 1 1 2 1 1 4 1 2 5 1 0 0 2 2 3 1 2 0 8 6 0 0 7 12 1 4 1 5 2 3 0 8 8 11 3 2 1 0 0 2 85 202 227 230 327 228 293 108 67 218 664 479 529 647 337 349 199 1117 1736 2030 2072 1834 1790 1733 1664 1599 1591 1359 1109 1148 1059 1150 1131 1053 1030 1091 1206 1150 1266 1435
3 4 1 2 4 16 2 7 0 6 6 8 3 1 7 0 0 0 2 2 1 0 0 0 0 4 1 9 13 5 0 1 1 8 4 0 0 0 2 5 7 8 0 0 0 1 59 156 269 349 185 152 114 157 113 84 480 375 187 546 475 354 321 749 1484 1304 1692 1702 1682 1586 1509 1309 1354 1398 1292 1247 1226 1215 1347 1281 1282 1223 1324 1416 1451 1314
2 2 0 1 3 17 0 0 0 3 7 6 6 5 0 0 0 0 0 0 0 1 2 0 0 2 0 1 6 0 3 4 1 1 0 0 9 12 8 23 29 40 0 0 0 0 37 150 323 408 270 233 322 276 359 194 118 223 482 575 395 765 775 861 1172 876 1207 1610 1613 1645 1516 1428 1408 1271 1302 1355 1404 1396 1317 1282 1260 1360 1535 1565 1322 1273
2 2 5 8 5 9 6 2 8 9 8 6 6 0 0 0 0 0 0 0 0 0 1 0 0 4 0 0 3 3 1 1 2 1 0 0 0 19 36 8 7 6 36 7 0 0 26 103 222 422 570 279 289 241 268 209 59 171 242 402 375 495 855 782 578 823 1056 1399 1644 1616 1538 1308 1148 1120 1140 1245 1273 1172 1147 1260 1310 1357 1464 1693 1638 1548
0 1 2 3 1 4 5 3 2 3 2 4 1 0 0 0 0 0 0 0 0 0 0 1 3 1 0 0 3 0 1 0 0 0 0 0 0 4 8 8 5 2 2 3 82 5 78 114 168 284 412 257 197 124 129 146 113 160 196 393 555 480 657 891 1119 1501 1695 1658 1626 1718 1805 1713 1535 1366 1349 1104 1200 1266 1121 1179 1268 1286 1518 1710 1763 1850
1 3 6 2 1 0 2 17 2 7 17 0 0 0 0 0 0 0 0 0 0 0 0 1 0 1 0 0 3 0 2 3 4 4 1 0 2 14 3 2 4 1 2 3 2 33 5 32 132 222 303 424 200 230 184 170 199 194 234 515 553 698 725 799 750 955 1575 1587 1543 1647 1759 1775 1527 1439 1449 1354 1228 1104 1100 1105 1160 1258 1392 1541 1727 1672
2 1 2 1 1 4 0 1 22 4 2 10 0 0 0 0 0 0 0 0 0 0 2 0 0 0 2 6 4 0 1 8 0 1 0 2 34 6 3 4 4 1 5 3 1 17 40 0 4 163 364 524 202 185 156 217 150 124 141 395 381 712 854 1121 1029 1193 1503 1534 1406 1301 1354 1583 1443 1435 1351 1291 1162 1132 1054 1120 1165 1252 1517 1710 1608 1437
4 5 2 5 2 1 5 0 0 0 0 1 0 0 0 1 2 1 0 0 0 17 0 0 0 0 0 0 1 2 3 3 2 0 1 2 1 1 7 8 2 1 1 4 6 6 11 0 0 54 224 455 335 184 179 93 146 210 167 339 290 529 438 789 1258 1696 1496 1463 1372 1612 1216 1283 915 1078 1424 1294 1183 1136 1001 953 1189 1231 1293 1322 1269 1247
3 3 3 1 3 4 1 0 2 25 2 3 0 0 0 0 1 1 0 0 0 2 0 0 0 0 3 2 2 6 9 2 1 0 0 0 6 3 11 7 28 4 8 10 37 29 14 1 4 14 132 356 386 188 296 247 183 304 222 234 315 342 796 1100 1035 1150 1111 968 1255 1452 1381 1472 1682 1657 1727 1374 1281 1288 1096 852 889 939 1056 1023 1036 965
2 4 3 1 2 3 2 4 3 20 0 0 0 0 0 0 0 0 0 1 1 2 1 1 5 1 2 3 4 3 3 0 3 0 0 3 2 2 5 2 4 3 67 37 41 46 43 11 10 23 140 349 477 222 158 200 206 206 113 232 202 256 388 340 436 633 691 682 604 987 1410 1642 1558 1682 1677 1445 1282 1239 1139 1040 868 763 855 916 909 851
4 5 2 1 2 3 0 3 39 14 0 0 0 0 0 1 0 5 4 0 0 6 1 10 2 1 4 4 5 2 0 1 9 6 0 0 1 4 4 5 9 5 143 84 88 118 59 37 18 36 218 424 504 284 169 137 212 186 197 371 213 160 78 197 510 463 308 448 818 1136 1402 1570 1562 1704 1612 1488 1306 1022 1023 880 845 918 743 792 864 830
2 0 7 4 1 4 0 4 44 37 3 0 0 0 2 1 0 0 1 0 2 0 2 1 3 0 7 6 6 5 1 0 0 0 0 0 5 8 3 2 6 10 64 84 118 106 72 46 45 143 377 482 502 443 203 221 278 188 168 302 201 51 166 302 245 354 390 349 449 1109 1516 1893 1892 1674 1578 1324 1108 948 808 774 753 882 647 779 885 952
0 3 4 0 3 2 1 2 10 6 4 1 1 0 1 0 0 0 0 0 0 1 1 1 1 8 14 10 7 4 0 0 1 0 0 2 2 9 4 7 6 16 220 18 157 109 64 72 94 195 454 569 485 440 318 336 431 277 226 264 164 52 175 386 334 324 248 398 550 747 1346 1770 1846 1697 1448 1275 1078 844 781 716 838 774 744 689 832 1002
0 0 0 0 0 3 2 3 13 0 1 0 1 0 0 0 0 0 2 0 0 1 13 0 8 21 31 20 10 2 0 0 0 1 3 4 6 8 2 9 4 14 21 133 2 32 193 259 312 231 354 496 548 473 360 403 492 347 320 209 345 183 296 420 396 297 267 348 437 713 1736 1684 1714 1845 1537 1438 1135 1168 918 874 850 697 694 764 819 902
0 0 1 2 1 5 3 2 4 16 0 1 0 2 0 0 0 3 4 8 5 22 8 18 17 46 14 16 6 1 4 10 22 24 10 2 5 1 1 0 1 6 24 8 0 0 8 53 138 439 640 478 488 361 331 381 393 531 452 452 344 353 426 520 492 326 206 363 654 714 1256 1206 1606 1835 1696 1438 1284 1252 1160 831 579 676 884 903 772 866
1 2 1 1 1 6 6 5 1 1 0 2 0 3 2 0 7 3 4 9 5 47 7 6 13 34 41 13 9 9 7 8 22 21 9 6 6 4 1 1 1 1 1 0 0 1 1 56 47 223 339 499 595 490 612 540 578 586 543 407 389 470 465 386 276 238 472 230 385 428 560 1407 2062 1972 1883 1701 1283 1165 980 904 638 657 756 808 812 1199
2 6 2 3 3 2 3 8 5 12 2 3 8 1 3 6 8 10 4 1 8 75 62 4 51 42 70 29 9 7 5 4 6 14 11 9 6 6 3 2 2 1 2 2 0 0 1 100 203 72 308 470 385 484 676 783 642 588 627 683 540 508 430 381 327 175 251 269 412 610 1002 1537 1756 1611 1531 1517 1344 1275 1181 916 749 669 836 843 990 1427
2 2 1 2 11 5 11 19 9 2 9 6 4 16 5 4 5 1 4 4 2 45 34 19 16 20 86 79 43 5 4 2 0 3 10 4 6 4 3 2 2 0 0 0 0 14 0 295 286 29 93 178 361 280 388 604 648 604 1057 942 765 951 612 394 460 395 1078 397 362 719 1355 1216 1509 1507 1363 1350 1423 1373 1087 942 717 682 760 835 1076 1552
1 3 5 5 18 4 4 4 13 12 6 9 5 7 9 9 11 4 7 7 7 4 30 38 60 66 96 18 66 19 7 1 2 7 14 8 5 4 2 2 4 3 6 8 33 0 43 5 38 92 87 114 307 244 130 470 748 722 959 990 635 500 656 888 803 537 294 274 520 536 1141 1481 1750 1787 1535 1313 986 1038 1074 1146 978 658 448 581 1003 1456
3 3 8 5 3 10 2 3 2 7 9 4 9 8 5 5 5 4 6 6 6 4 36 50 62 45 43 15 17 21 14 7 1 0 8 14 5 3 3 2 2 0 2 1 30 121 181 142 149 266 192 17 195 364 371 514 813 852 951 833 650 468 461 408 636 1075 509 302 140 651 1134 1330 1648 1799 1754 1699 1173 877 860 751 660 624 501 647 923 1159
1 6 5 9 2 8 8 9 4 1 3 5 9 7 3 6 7 4 6 7 3 4 6 33 22 28 28 26 5 16 15 9 4 2 0 10 21 10 3 5 3 2 2 1 117 254 302 187 228 228 84 433 431 222 324 600 815 934 832 854 646 448 510 596 529 669 404 578 391 907 1351 979 1391 1589 1573 1478 1459 1277 948 766 909 739 680 636 758 538
3 1 13 5 2 6 5 10 3 11 4 7 5 2 1 4 3 4 4 4 10 4 4 6 9 15 22 32 43 61 20 7 6 3 0 0 4 17 13 3 4 2 2 1 151 200 291 412 346 458 573 406 374 392 800 623 359 836 809 672 689 1086 948 840 860 837 570 694 492 538 1011 1299 1436 1577 1600 1463 1302 1173 1242 1016 969 1163 1316 1181 931 566
5 2 3 0 2 11 12 3 2 2 5 7 6 2 3 6 2 5 4 3 4 4 6 4 9 5 18 31 26 36 18 12 4 2 1 0 0 1 13 22 30 2 0 2 2 83 246 380 428 648 578 494 571 534 451 476 725 567 772 717 640 1160 1028 1021 780 1160 696 609 530 561 1257 1115 1076 1286 1301 1152 1026 1180 1310 1464 1459 1703 1394 1312 1316 809
7 14 2 2 0 1 3 8 3 6 5 5 6 2 5 4 4 7 7 3 2 2 3 1 2 10 8 3 28 30 34 17 10 6 2 1 0 0 0 31 74 2 2 2 2 2 183 525 537 482 717 552 724 782 621 535 499 505 666 809 995 998 1028 806 1008 1262 759 738 524 572 1046 1122 1038 1142 960 880 874 876 927 1240 1279 1524 1631 1528 1428 1262
3 3 0 2 2 4 3 8 4 5 9 10 4 2 4 2 3 6 5 1 2 5 5 3 1 5 8 12 6 29 35 42 16 16 1 3 0 0 0 0 18 9 2 2 0 1 1 88 377 498 653 707 669 812 716 655 770 890 812 447 526 1038 1180 997 591 496 691 499 399 352 708 953 862 1071 970 751 951 1077 961 1208 1261 1219 1445 1463 1429 1396
Wind_Speed
nan nan nan nan nan nan nan nan nan nan nan nan nan nan nan nan nan nan nan nan nan nan nan nan nan nan nan nan nan nan nan nan nan nan nan nan nan nan nan nan nan nan nan nan nan nan nan nan 64 65 61 57 57 56 55 54 55 56 67 66 65 60 48 48 57 54 53 56 55 50 47 45 44 41 41 39 37 33 34 34 32 31 32 26 24 28
nan nan nan nan nan nan nan nan nan nan nan nan nan nan nan nan nan nan nan nan nan nan nan nan nan nan nan nan nan nan nan nan nan nan nan nan nan nan nan nan nan nan nan nan nan nan 52 nan 57 66 65 61 58 56 55 55 57 61 69 64 63 61 55 51 49 46 40 39 44 45 41 39 42 41 41 40 37 34 36 35 33 32 32 27 26 29
nan nan nan nan nan nan nan nan nan nan nan nan nan nan nan nan nan nan nan nan nan nan nan nan nan nan nan nan nan nan nan nan nan nan nan nan nan nan nan nan nan nan nan nan nan nan 45 nan nan 63 67 64 58 55 54 56 59 62 68 65 64 62 59 56 51 47 42 36 38 43 42 40 43 42 43 41 41 38 38 37 35 33 33 32 28 29
nan nan nan nan nan nan nan nan nan nan nan nan nan nan nan nan nan nan nan nan nan nan nan nan nan nan nan nan nan nan nan nan nan nan nan nan nan nan nan nan nan nan nan nan nan nan nan 47 nan nan 61 62 58 54 54 57 59 64 67 64 63 62 61 58 52 46 43 40 41 48 52 49 47 48 48 46 47 41 41 37 36 34 34 34 28 28
nan nan nan nan nan nan nan nan nan nan nan nan nan nan nan nan nan nan nan nan nan nan nan nan nan nan nan nan nan nan nan nan nan nan nan nan nan nan nan nan nan nan nan nan nan nan nan nan 46 nan nan nan 58 55 55 58 60 65 66 64 62 63 60 56 50 46 46 47 48 50 55 61 61 59 53 50 47 43 41 37 35 34 35 32 29 29
nan nan nan nan nan nan nan nan nan nan nan nan nan nan nan nan nan nan nan nan nan nan nan nan nan nan nan nan nan nan nan nan nan nan nan nan nan nan nan nan nan nan nan nan nan nan nan nan nan nan nan nan 57 57 57 59 61 64 67 63 61 62 62 57 53 49 50 49 51 49 49 53 56 51 49 45 45 44 40 33 34 36 36 34 32 30
nan nan nan nan nan nan nan nan nan nan nan nan nan nan nan nan nan nan nan nan nan nan nan nan nan nan nan nan nan nan nan nan nan nan nan nan nan nan nan nan nan nan nan nan nan nan nan nan nan nan nan nan nan 56 59 60 61 63 66 63 61 61 61 59 55 53 57 61 58 51 46 47 47 47 48 46 46 45 41 35 34 39 37 34 33 31
nan nan nan nan nan nan nan nan nan nan nan nan nan nan nan nan nan nan nan nan nan nan nan nan nan nan nan nan nan nan nan nan nan nan nan nan nan nan nan nan nan nan nan 36 38 nan nan nan nan nan nan nan nan nan 58 60 62 63 64 63 62 63 61 59 59 59 60 57 59 57 54 48 52 53 53 51 46 48 42 37 36 40 36 31 30 30
nan nan nan nan nan nan nan nan nan nan nan nan nan nan nan nan nan nan nan nan nan nan nan nan nan nan nan nan nan nan nan nan nan nan nan nan nan nan nan nan nan nan nan 32 nan nan nan nan nan nan nan nan nan nan 55 58 61 64 64 63 63 64 63 61 62 58 55 52 52 51 48 46 50 52 52 52 54 48 43 40 40 38 31 27 26 27
nan nan nan nan nan nan nan nan nan nan nan nan nan nan nan nan nan nan nan nan nan nan nan nan nan nan nan nan nan nan nan nan nan nan nan nan nan nan nan nan nan nan nan nan nan nan nan nan 35 nan nan 32 nan 45 52 55 61 64 65 63 64 64 63 63 61 60 54 52 53 50 46 44 46 50 54 52 50 49 44 40 39 35 29 28 27 27
nan nan nan nan nan nan nan nan nan nan nan nan nan nan nan nan nan nan nan nan nan nan nan nan nan nan nan nan nan nan nan nan nan nan nan nan nan nan nan nan nan nan nan 28 33 36 34 34 35 35 nan nan 35 41 49 54 58 64 64 63 62 63 64 63 61 60 54 52 52 51 49 45 44 45 50 47 40 41 40 38 37 32 29 30 28 29
nan nan nan nan nan nan nan nan nan nan nan nan nan nan nan nan nan nan nan nan nan nan nan nan nan nan nan nan nan nan nan nan nan nan nan nan nan nan nan nan nan nan nan nan 32 nan 36 35 36 36 34 33 nan 38 44 51 56 61 64 62 61 65 64 63 59 59 55 55 53 52 51 49 46 45 49 46 41 41 37 35 35 33 32 32 32 31
nan nan nan nan nan nan nan nan nan nan nan nan nan nan nan nan nan nan nan nan nan nan nan nan nan nan nan nan nan nan nan nan nan nan nan nan nan nan nan nan nan nan nan nan nan nan 39 39 38 37 35 35 36 39 43 47 53 59 63 61 60 65 65 64 61 58 58 57 53 51 51 52 50 44 44 45 45 42 38 35 35 35 32 31 30 28
nan nan nan nan nan nan nan nan nan nan nan nan nan nan nan nan nan nan nan nan nan nan nan nan nan nan nan nan nan nan nan nan nan nan nan nan nan nan nan nan nan nan nan 27 26 nan 36 42 42 41 39 38 39 37 41 46 51 57 63 62 59 65 67 66 63 61 61 56 53 58 58 55 53 47 42 45 47 44 41 39 37 36 33 29 26 24
nan nan nan nan nan nan nan nan nan nan nan nan nan nan nan nan nan nan nan nan nan nan nan nan nan nan nan nan nan nan nan nan nan nan nan nan nan nan 29 nan nan nan nan nan nan 23 30 38 44 45 44 43 41 39 38 44 50 55 59 63 60 62 69 67 65 64 61 58 55 56 49 46 50 50 44 46 50 46 41 39 37 36 35 30 27 23
nan nan nan nan nan nan nan nan nan nan nan nan nan nan nan nan nan nan nan nan nan nan nan nan nan nan nan nan nan nan nan nan nan nan nan nan nan nan nan nan nan nan nan nan nan 22 25 31 39 44 47 48 46 43 41 39 48 53 56 62 60 61 76 70 64 59 60 61 60 51 49 44 44 47 45 47 51 47 41 38 37 37 35 31 28 26
nan nan nan nan nan nan nan nan nan nan nan nan nan nan nan nan nan nan nan nan nan nan nan nan nan nan nan nan nan nan nan nan nan nan nan nan nan nan nan nan nan 33 nan nan nan nan 25 28 32 38 43 48 49 48 44 40 44 48 53 59 58 64 72 70 61 58 58 62 58 51 51 50 46 43 42 44 48 45 41 39 38 38 36 32 29 28
nan nan nan nan nan nan nan nan nan nan nan nan nan nan nan nan nan nan nan nan nan nan nan nan nan nan nan nan nan nan nan nan nan nan nan nan nan nan nan nan nan nan nan 33 nan nan 24 28 29 35 37 39 45 47 47 45 45 47 51 56 58 64 69 69 62 59 60 60 59 52 49 49 46 44 41 43 47 47 41 38 37 38 36 32 31 30
nan nan nan nan nan nan nan nan nan nan nan nan nan nan nan nan nan nan nan nan nan nan nan nan nan nan nan nan nan nan nan nan nan nan nan nan nan nan nan nan nan nan nan nan 35 nan 25 30 30 33 36 35 39 43 47 47 47 47 51 56 57 61 64 68 64 62 63 61 59 53 48 47 48 47 45 43 45 50 43 36 37 36 35 34 33 32
nan nan nan nan nan nan nan nan nan nan nan nan nan nan nan nan nan nan nan nan nan nan nan nan nan nan nan nan nan nan nan nan nan nan nan nan nan nan nan nan nan nan nan nan nan 36 nan 30 27 26 33 33 32 37 43 45 45 44 50 54 57 64 66 69 66 64 62 61 58 53 50 49 50 49 46 43 41 49 54 57 51 44 39 38 37 35
nan nan nan nan nan nan nan nan nan nan nan nan nan nan nan nan nan nan nan nan nan nan nan nan nan nan nan nan nan nan nan nan nan nan nan nan nan nan nan nan nan nan nan nan nan nan 33 28 30 27 29 30 31 34 41 44 43 45 50 53 55 60 61 66 66 64 63 61 57 55 50 48 49 50 49 45 41 46 60 52 47 56 56 46 41 38
nan nan nan nan nan nan nan nan nan nan nan nan nan nan nan nan nan nan nan nan nan nan nan nan nan nan nan nan nan nan nan nan nan nan nan nan nan nan nan nan nan nan nan nan nan 31 33 29 30 31 27 28 29 34 38 42 44 47 51 52 54 60 58 60 66 65 62 61 61 56 54 49 49 50 49 46 42 41 51 51 46 46 47 48 43 38
nan nan nan nan nan nan nan nan nan nan nan nan nan nan nan nan nan nan nan nan nan nan nan nan nan nan 37 nan nan nan nan nan nan nan nan nan nan nan nan nan nan nan nan nan nan nan 31 30 25 28 26 24 24 29 36 43 45 47 52 55 54 59 56 59 62 64 62 62 64 62 60 56 54 53 52 49 46 42 46 50 46 48 50 49 47 40
nan nan nan nan nan nan nan nan nan nan nan nan nan nan nan nan nan nan nan nan nan nan nan nan nan nan nan nan nan nan nan nan nan nan nan nan nan nan nan nan nan nan nan nan nan 27 28 27 22 27 30 23 22 28 34 39 41 51 54 62 66 61 59 60 59 64 64 59 60 60 62 60 56 56 55 53 50 45 43 47 47 47 47 50 47 41
nan nan nan nan nan nan nan nan nan nan nan nan nan nan nan nan nan nan nan nan nan nan nan nan nan nan nan nan nan nan nan nan nan nan nan nan nan nan nan nan nan nan nan nan nan nan 29 28 21 26 29 25 20 25 33 35 38 47 57 61 61 62 65 57 53 55 62 62 60 59 58 55 57 58 54 51 50 48 46 44 45 45 45 49 50 47
nan nan nan nan nan nan nan nan nan nan nan nan nan nan nan nan nan nan nan nan nan nan nan nan nan nan nan nan nan nan nan nan nan nan nan nan nan nan nan nan nan nan nan nan nan nan 30 30 27 24 26 22 nan nan 29 34 37 42 46 48 52 55 62 71 65 56 61 64 62 63 60 59 60 57 56 55 52 48 47 46 45 44 44 44 46 49
nan nan nan nan nan nan nan nan nan nan nan nan nan nan nan nan nan nan nan nan nan nan nan nan nan nan nan nan nan nan nan nan nan nan nan nan nan nan nan nan nan nan nan nan nan nan nan 29 31 29 23 22 24 26 nan 34 37 40 47 53 58 57 57 67 75 69 61 61 64 63 60 60 57 55 53 54 54 52 49 48 46 44 43 40 40 46
nan nan nan nan nan nan nan nan nan nan nan nan nan nan nan nan nan nan nan nan nan nan nan nan nan nan nan nan nan nan nan nan nan nan nan nan nan nan nan nan nan nan nan nan nan nan nan 29 31 32 24 21 26 30 31 nan 35 36 44 49 48 44 47 63 64 63 65 62 65 66 62 61 58 53 52 54 54 51 49 50 48 44 44 42 39 44
nan nan nan nan nan nan nan nan nan nan nan nan nan nan nan nan nan nan nan nan nan nan nan nan nan nan nan nan nan nan nan nan nan nan nan nan nan nan nan nan nan nan nan nan nan nan nan 29 28 33 29 27 30 32 33 32 33 37 46 49 43 35 38 57 64 55 50 59 64 66 64 62 60 59 56 55 53 52 51 51 49 48 47 42 38 43
nan nan nan nan nan nan nan nan nan nan nan nan nan nan nan nan nan nan nan nan nan nan nan nan nan nan nan nan nan nan nan nan nan nan nan nan nan nan nan nan nan nan nan nan nan nan nan 30 29 30 34 29 30 33 33 32 nan 39 42 48 47 40 35 53 63 52 43 46 56 62 62 61 60 57 55 54 52 53 52 51 50 51 49 41 41 46
nan nan nan nan nan nan nan nan nan nan nan nan nan nan nan nan nan nan nan nan nan nan nan nan nan nan nan nan nan nan nan nan nan nan nan nan nan nan nan nan nan nan nan nan nan nan nan 29 30 31 36 35 30 32 36 32 35 41 38 46 47 36 29 46 54 52 46 45 48 54 61 62 59 58 55 53 53 53 53 54 53 53 49 43 50 54
nan nan nan nan nan nan nan nan nan nan nan nan nan nan nan nan nan nan nan nan nan nan nan nan nan nan nan nan nan nan nan nan nan nan nan nan nan nan nan nan nan nan nan nan nan nan nan nan 33 33 35 38 32 30 32 32 35 39 39 46 41 34 32 45 53 49 43 41 44 51 58 62 61 58 55 53 53 54 52 56 55 53 54 53 49 40
nan nan nan nan nan nan nan nan nan nan nan nan nan nan nan nan nan nan nan nan nan nan nan nan nan nan nan nan nan nan nan nan nan nan nan nan nan nan nan nan nan nan nan nan nan nan nan nan nan 35 37 41 34 30 28 32 36 37 37 40 39 35 36 43 52 52 42 39 46 54 62 68 63 59 58 56 56 57 57 57 53 50 51 52 48 41
nan nan nan nan nan nan nan nan nan nan nan nan nan nan nan nan nan nan nan nan nan nan nan nan nan nan nan nan nan nan nan nan nan nan nan nan nan nan nan nan nan nan nan nan nan nan nan nan nan nan 37 42 39 32 33 nan 37 38 38 39 38 33 31 29 35 47 50 47 50 46 50 48 46 52 59 60 60 60 59 55 51 46 47 48 47 45
nan nan nan nan nan nan nan nan nan nan nan nan nan nan nan nan nan nan nan nan nan nan nan nan nan nan nan nan nan nan nan nan nan nan nan nan nan nan nan nan nan nan nan nan nan nan nan nan nan nan 36 40 42 35 36 37 38 37 35 36 35 40 46 42 38 44 49 49 48 48 49 43 39 43 54 60 59 54 49 47 48 47 44 44 44 43
nan nan nan nan nan nan nan nan nan nan nan nan nan nan nan nan nan nan nan nan nan nan nan nan nan nan nan nan nan nan nan nan nan nan nan nan nan nan nan nan nan nan nan nan nan nan nan nan nan nan 34 39 44 37 36 38 38 35 32 35 36 39 39 32 29 38 44 46 45 44 45 46 45 43 49 55 57 51 45 43 42 43 44 44 44 44
nan nan nan nan nan nan nan nan nan nan nan nan nan nan nan nan nan nan nan nan nan nan nan nan nan nan nan nan nan nan nan nan nan nan nan nan nan nan nan nan nan nan 11 nan nan 21 nan nan nan nan 35 40 44 39 38 40 38 34 32 33 36 37 nan 29 28 32 35 34 40 40 38 42 44 44 46 49 51 46 44 41 40 42 45 45 46 42
nan nan nan nan nan nan nan nan nan nan nan nan nan nan nan nan nan nan nan nan nan nan nan nan nan nan nan nan nan nan nan nan nan nan nan nan nan nan nan nan nan nan nan nan 19 20 nan nan nan 35 38 40 42 42 41 41 38 32 30 31 32 nan 38 34 28 30 33 35 37 40 39 39 42 45 42 39 38 39 43 43 42 42 44 42 44 42
nan nan nan nan nan nan nan nan nan nan nan nan nan nan nan nan nan nan nan nan nan nan nan nan nan nan nan nan nan nan nan nan nan nan nan nan nan nan nan nan nan nan 12 nan 27 26 nan nan nan 37 40 39 37 38 41 42 41 32 28 28 30 nan 31 34 34 33 31 32 36 39 40 40 42 44 41 40 36 35 39 41 41 42 44 42 42 38
nan nan nan nan nan nan nan nan nan nan nan nan nan nan nan nan nan nan nan nan nan nan nan nan nan nan nan nan nan nan nan nan nan nan nan nan nan nan nan nan nan nan nan 17 nan nan 34 34 40 46 43 36 36 38 38 41 41 36 29 25 30 28 29 32 34 31 31 33 34 38 43 42 44 43 40 40 41 41 43 45 45 43 42 42 44 40
nan nan nan nan nan nan nan nan nan nan nan nan nan nan nan nan nan nan nan nan nan nan nan nan nan nan nan nan nan nan nan nan nan nan nan nan nan nan nan nan nan nan nan nan nan nan nan nan 44 46 37 35 35 32 34 37 39 39 37 32 29 30 30 32 31 29 29 33 37 39 40 42 42 42 40 39 41 43 45 45 45 45 43 42 43 37
nan nan nan nan nan nan nan nan nan nan nan nan nan nan nan nan nan nan nan nan nan nan nan nan nan nan nan nan nan nan nan nan nan nan nan nan nan nan nan nan nan nan nan nan nan nan nan nan nan 48 37 36 33 31 35 38 40 43 44 36 32 33 32 32 34 35 41 37 34 35 37 38 41 43 44 43 43 45 45 47 48 49 47 44 45 40
nan nan nan nan nan nan nan nan nan nan nan nan nan nan nan nan nan nan nan nan nan nan nan nan nan nan nan nan nan nan nan nan nan nan nan nan nan nan nan nan nan nan nan nan nan nan nan nan 43 nan 37 35 38 38 38 43 44 45 42 39 35 33 32 32 34 33 34 33 35 33 35 38 40 42 47 47 48 45 46 47 48 52 51 48 47 44
nan nan nan nan nan nan nan nan nan nan nan nan nan nan nan nan nan nan nan nan nan nan nan nan nan nan nan nan nan nan nan nan nan nan nan nan nan nan nan nan nan nan nan nan nan nan nan 42 40 nan nan 35 33 35 38 41 39 44 49 46 45 40 34 31 36 38 42 32 28 32 34 35 37 37 40 46 49 49 50 49 49 52 53 49 47 50
nan nan nan nan nan nan nan nan nan nan nan nan nan nan nan nan nan nan nan nan nan nan nan nan nan nan nan nan nan nan nan nan nan nan nan nan nan nan nan nan nan nan nan nan nan nan nan nan nan nan nan 31 31 30 31 35 40 43 43 45 44 41 36 36 39 39 35 35 33 30 33 33 35 34 38 44 48 51 51 49 49 50 48 45 46 50
nan nan nan nan nan nan nan nan nan nan nan nan nan nan nan nan nan nan nan nan nan nan nan nan nan nan nan nan nan nan nan nan nan nan nan nan nan nan nan nan nan nan nan nan nan 27 25 32 37 37 38 nan 32 31 32 31 36 37 39 40 39 38 38 39 39 44 41 30 26 31 36 39 37 34 35 43 48 50 50 52 52 52 53 52 50 49
nan nan nan nan nan nan nan nan nan nan nan nan nan nan nan nan nan nan nan nan nan nan nan nan nan nan nan nan nan nan nan nan nan nan nan nan nan nan nan nan nan nan nan nan 24 24 27 34 40 43 nan 48 51 43 34 32 32 33 34 34 34 33 36 38 40 41 39 33 28 29 36 44 43 40 38 42 48 49 51 50 48 43 45 50 50 48
nan nan nan nan nan nan nan nan nan nan nan nan nan nan nan nan nan nan nan nan nan nan nan nan nan nan nan nan nan nan nan nan nan nan nan nan nan nan nan nan nan nan nan nan 24 25 26 34 37 40 43 44 45 46 48 43 34 32 34 34 33 35 37 38 39 40 35 29 31 30 33 44 50 45 44 46 48 50 52 54 49 42 38 38 38 39
nan nan nan nan nan nan nan nan nan nan nan nan nan nan nan nan nan nan nan nan nan nan nan nan nan nan nan nan nan nan nan nan nan nan nan nan nan nan nan nan nan nan nan nan nan nan 25 30 34 37 40 42 42 45 45 48 51 47 39 32 31 32 33 35 38 41 36 31 28 19 25 36 42 43 45 48 50 56 60 57 55 52 47 41 39 38
nan nan nan nan nan nan nan nan nan nan nan nan nan nan nan nan nan nan nan nan nan nan nan nan nan nan nan nan nan nan nan nan nan nan nan nan nan nan nan nan nan nan nan nan nan nan 24 27 31 34 38 39 42 42 43 45 47 48 51 49 44 41 39 35 34 39 36 34 32 27 25 29 34 38 42 46 50 56 61 66 68 64 55 53 57 52
nan nan nan nan nan nan nan nan nan nan nan nan nan nan nan nan nan nan nan nan nan nan nan nan nan nan nan nan nan nan nan nan nan nan nan nan nan nan nan nan nan nan nan nan nan nan nan nan 30 33 37 39 40 40 40 40 42 46 47 46 43 38 35 38 38 34 31 29 28 23 24 27 30 33 37 41 46 50 53 56 61 66 67 64 61 58
Wind_Direction
nan nan nan nan nan nan nan nan nan nan nan nan nan nan nan nan nan nan nan nan nan nan nan nan nan nan nan nan nan nan nan nan nan nan nan nan nan nan nan nan nan nan nan nan nan nan nan nan 238 238 231 228 226 222 222 223 222 228 234 236 239 241 238 235 235 226 217 216 222 226 220 212 225 229 234 237 235 237 238 241 243 248 252 251 260 257
nan nan nan nan nan nan nan nan nan nan nan nan nan nan nan nan nan nan nan nan nan nan nan nan nan nan nan nan nan nan nan nan nan nan nan nan nan nan nan nan nan nan nan nan nan nan 239 nan 237 239 234 228 226 221 219 221 221 225 235 234 237 237 237 241 243 242 235 230 223 224 229 223 229 230 233 238 236 236 236 240 242 245 253 250 255 254
nan nan nan nan nan nan nan nan nan nan nan nan nan nan nan nan nan nan nan nan nan nan nan nan nan nan nan nan nan nan nan nan nan nan nan nan nan nan nan nan nan nan nan nan nan nan 239 nan nan 238 235 228 224 221 219 220 221 225 233 232 235 235 237 237 241 240 238 236 234 227 220 224 231 233 232 234 235 237 235 238 242 243 251 249 250 251
nan nan nan nan nan nan nan nan nan nan nan nan nan nan nan nan nan nan nan nan nan nan nan nan nan nan nan nan nan nan nan nan nan nan nan nan nan nan nan nan nan nan nan nan nan nan nan 243 nan nan 237 232 227 222 220 221 222 225 231 232 234 236 235 237 239 242 240 239 235 225 214 209 221 231 231 233 233 235 235 238 241 244 247 249 254 249
nan nan nan nan nan nan nan nan nan nan nan nan nan nan nan nan nan nan nan nan nan nan nan nan nan nan nan nan nan nan nan nan nan nan nan nan nan nan nan nan nan nan nan nan nan nan nan nan 239 nan nan nan 227 222 221 222 223 225 231 232 234 236 237 237 238 239 238 238 235 231 223 211 206 212 226 228 233 234 234 236 240 247 251 252 256 244
nan nan nan nan nan nan nan nan nan nan nan nan nan nan nan nan nan nan nan nan nan nan nan nan nan nan nan nan nan nan nan nan nan nan nan nan nan nan nan nan nan nan nan nan nan nan nan nan nan nan nan nan 226 222 220 221 224 227 230 232 233 234 235 235 236 238 237 235 234 237 236 228 219 210 212 229 236 235 237 239 240 250 251 252 249 234
nan nan nan nan nan nan nan nan nan nan nan nan nan nan nan nan nan nan nan nan nan nan nan nan nan nan nan nan nan nan nan nan nan nan nan nan nan nan nan nan nan nan nan nan nan nan nan nan nan nan nan nan nan 223 220 220 223 229 230 233 232 234 234 235 234 236 233 229 227 228 231 241 239 220 208 221 231 235 235 236 241 247 250 253 247 230
nan nan nan nan nan nan nan nan nan nan nan nan nan nan nan nan nan nan nan nan nan nan nan nan nan nan nan nan nan nan nan nan nan nan nan nan nan nan nan nan nan nan nan 233 238 nan nan nan nan nan nan nan nan nan 222 219 221 228 230 232 232 232 233 234 234 235 233 234 229 224 217 225 232 226 213 206 222 230 234 235 242 244 249 251 240 233
nan nan nan nan nan nan nan nan nan nan nan nan nan nan nan nan nan nan nan nan nan nan nan nan nan nan nan nan nan nan nan nan nan nan nan nan nan nan nan nan nan nan nan 240 nan nan nan nan nan nan nan nan nan nan 225 221 221 225 229 230 231 233 233 233 238 236 236 234 236 239 233 224 225 227 223 209 199 221 229 231 236 240 241 236 228 227
nan nan nan nan nan nan nan nan nan nan nan nan nan nan nan nan nan nan nan nan nan nan nan nan nan nan nan nan nan nan nan nan nan nan nan nan nan nan nan nan nan nan nan nan nan nan nan nan 247 nan nan 241 nan 229 227 224 222 224 227 228 231 232 232 232 237 236 237 237 234 234 239 240 233 226 224 218 203 202 223 227 234 234 227 218 218 221
nan nan nan nan nan nan nan nan nan nan nan nan nan nan nan nan nan nan nan nan nan nan nan nan nan nan nan nan nan nan nan nan nan nan nan nan nan nan nan nan nan nan nan 241 244 246 245 245 243 246 nan nan 237 230 228 225 223 224 226 227 230 233 232 234 235 235 237 236 235 234 234 238 242 235 224 218 214 207 219 227 233 228 220 213 218 222
nan nan nan nan nan nan nan nan nan nan nan nan nan nan nan nan nan nan nan nan nan nan nan nan nan nan nan nan nan nan nan nan nan nan nan nan nan nan nan nan nan nan nan nan 241 nan 247 245 243 243 245 246 nan 236 232 227 225 225 225 226 228 231 233 234 234 233 237 234 233 233 233 234 237 240 228 215 210 219 226 230 234 229 220 213 217 222
nan nan nan nan nan nan nan nan nan nan nan nan nan nan nan nan nan nan nan nan nan nan nan nan nan nan nan nan nan nan nan nan nan nan nan nan nan nan nan nan nan nan nan nan nan nan 241 244 242 243 245 246 244 238 236 232 227 226 225 225 227 230 233 233 234 234 237 234 232 232 235 235 234 236 232 218 209 216 228 234 235 231 227 220 219 225
nan nan nan nan nan nan nan nan nan nan nan nan nan nan nan nan nan nan nan nan nan nan nan nan nan nan nan nan nan nan nan nan nan nan nan nan nan nan nan nan nan nan nan 226 236 nan 240 242 243 242 244 246 245 242 237 234 229 226 225 224 226 228 233 232 233 233 234 234 232 229 223 226 232 232 231 222 212 215 224 234 235 231 231 229 225 230
nan nan nan nan nan nan nan nan nan nan nan nan nan nan nan nan nan nan nan nan nan nan nan nan nan nan nan nan nan nan nan nan nan nan nan nan nan nan 210 nan nan nan nan nan nan 234 244 244 244 242 242 244 244 244 242 235 231 228 225 224 224 227 232 232 232 231 233 232 234 236 235 230 223 226 228 223 216 217 225 232 237 233 232 230 227 228
nan nan nan nan nan nan nan nan nan nan nan nan nan nan nan nan nan nan nan nan nan nan nan nan nan nan nan nan nan nan nan nan nan nan nan nan nan nan nan nan nan nan nan nan nan 240 251 253 250 245 243 243 242 244 244 242 234 229 225 224 224 225 232 231 231 233 231 231 232 236 235 237 234 227 227 223 216 218 224 229 236 236 232 233 229 228
nan nan nan nan nan nan nan nan nan nan nan nan nan nan nan nan nan nan nan nan nan nan nan nan nan nan nan nan nan nan nan nan nan nan nan nan nan nan nan nan nan 209 nan nan nan nan 240 248 254 252 247 241 240 240 243 247 240 231 228 225 223 226 233 231 230 231 230 230 233 236 232 234 236 231 231 225 217 220 224 226 232 234 232 234 233 229
nan nan nan nan nan nan nan nan nan nan nan nan nan nan nan nan nan nan nan nan nan nan nan nan nan nan nan nan nan nan nan nan nan nan nan nan nan nan nan nan nan nan nan 201 nan nan 227 243 245 251 249 244 240 238 238 242 241 234 229 226 224 227 233 230 227 227 228 231 232 234 232 232 233 231 232 230 221 220 224 227 230 232 232 236 236 233
nan nan nan nan nan nan nan nan nan nan nan nan nan nan nan nan nan nan nan nan nan nan nan nan nan nan nan nan nan nan nan nan nan nan nan nan nan nan nan nan nan nan nan nan 202 nan 226 231 239 246 250 249 241 235 233 234 236 233 229 226 222 225 231 230 226 224 226 230 230 230 230 231 230 229 229 229 222 217 219 227 228 231 232 234 235 237
nan nan nan nan nan nan nan nan nan nan nan nan nan nan nan nan nan nan nan nan nan nan nan nan nan nan nan nan nan nan nan nan nan nan nan nan nan nan nan nan nan nan nan nan nan 197 nan 224 226 242 251 251 243 234 231 232 234 234 230 225 220 223 225 226 225 225 226 228 229 230 228 227 228 228 228 228 223 219 216 209 207 214 226 229 231 234
nan nan nan nan nan nan nan nan nan nan nan nan nan nan nan nan nan nan nan nan nan nan nan nan nan nan nan nan nan nan nan nan nan nan nan nan nan nan nan nan nan nan nan nan nan nan 191 212 222 226 241 249 243 232 229 230 232 232 229 223 220 222 224 224 224 225 226 227 228 232 230 227 227 227 226 225 221 220 225 223 215 207 199 210 226 230
nan nan nan nan nan nan nan nan nan nan nan nan nan nan nan nan nan nan nan nan nan nan nan nan nan nan nan nan nan nan nan nan nan nan nan nan nan nan nan nan nan nan nan nan nan 197 193 196 220 218 231 242 239 231 229 228 227 227 224 220 218 220 221 223 223 223 224 226 229 231 230 229 228 228 228 226 224 220 223 227 223 223 217 202 208 226
nan nan nan nan nan nan nan nan nan nan nan nan nan nan nan nan nan nan nan nan nan nan nan nan nan nan 336 nan nan nan nan nan nan nan nan nan nan nan nan nan nan nan nan nan nan nan 195 190 209 222 221 232 232 230 227 226 222 221 224 218 215 220 220 219 223 223 223 227 228 228 228 230 229 229 229 230 226 224 226 229 221 222 225 222 205 208
nan nan nan nan nan nan nan nan nan nan nan nan nan nan nan nan nan nan nan nan nan nan nan nan nan nan nan nan nan nan nan nan nan nan nan nan nan nan nan nan nan nan nan nan nan 198 199 196 198 217 215 216 228 225 221 217 216 218 213 216 213 212 218 219 219 221 224 227 229 229 228 227 228 230 232 230 227 228 229 229 231 225 225 227 225 207
nan nan nan nan nan nan nan nan nan nan nan nan nan nan nan nan nan nan nan nan nan nan nan nan nan nan nan nan nan nan nan nan nan nan nan nan nan nan nan nan nan nan nan nan nan nan 191 195 199 213 208 201 219 222 216 215 211 216 214 211 209 208 212 222 221 222 224 226 231 231 230 229 228 228 231 233 232 232 230 233 235 231 229 231 228 222
nan nan nan nan nan nan nan nan nan nan nan nan nan nan nan nan nan nan nan nan nan nan nan nan nan nan nan nan nan nan nan nan nan nan nan nan nan nan nan nan nan nan nan nan nan nan 189 192 195 219 214 192 nan nan 215 213 211 212 215 209 209 207 205 215 210 221 223 225 230 230 228 226 228 227 227 227 230 233 232 232 235 234 230 235 235 228
nan nan nan nan nan nan nan nan nan nan nan nan nan nan nan nan nan nan nan nan nan nan nan nan nan nan nan nan nan nan nan nan nan nan nan nan nan nan nan nan nan nan nan nan nan nan nan 192 191 193 224 198 198 210 nan 210 213 206 208 209 207 206 208 219 215 207 220 225 227 227 227 227 229 228 227 229 227 228 230 230 233 237 237 236 237 234
nan nan nan nan nan nan nan nan nan nan nan nan nan nan nan nan nan nan nan nan nan nan nan nan nan nan nan nan nan nan nan nan nan nan nan nan nan nan nan nan nan nan nan nan nan nan nan 191 191 188 202 202 188 197 204 nan 204 207 207 210 206 211 211 215 217 212 207 220 224 225 227 226 229 231 230 230 229 229 229 230 231 233 235 237 238 231
nan nan nan nan nan nan nan nan nan nan nan nan nan nan nan nan nan nan nan nan nan nan nan nan nan nan nan nan nan nan nan nan nan nan nan nan nan nan nan nan nan nan nan nan nan nan nan 190 193 187 183 191 191 192 198 195 195 200 206 214 216 218 211 214 213 215 215 210 218 222 224 225 227 228 229 231 232 232 232 231 231 230 228 232 232 226
nan nan nan nan nan nan nan nan nan nan nan nan nan nan nan nan nan nan nan nan nan nan nan nan nan nan nan nan nan nan nan nan nan nan nan nan nan nan nan nan nan nan nan nan nan nan nan 185 187 185 182 189 192 187 192 190 nan 197 199 215 216 215 210 210 210 214 219 219 216 218 221 224 226 228 229 231 232 234 234 233 233 230 227 226 221 217
nan nan nan nan nan nan nan nan nan nan nan nan nan nan nan nan nan nan nan nan nan nan nan nan nan nan nan nan nan nan nan nan nan nan nan nan nan nan nan nan nan nan nan nan nan nan nan 183 180 179 181 185 191 185 184 189 192 194 201 213 217 215 215 211 209 211 217 220 217 215 217 222 226 226 229 230 229 233 234 234 235 232 229 224 220 217
nan nan nan nan nan nan nan nan nan nan nan nan nan nan nan nan nan nan nan nan nan nan nan nan nan nan nan nan nan nan nan nan nan nan nan nan nan nan nan nan nan nan nan nan nan nan nan nan 178 177 179 180 187 192 184 187 192 192 203 218 220 219 219 205 205 214 220 220 217 212 216 221 225 225 227 228 230 231 233 233 235 234 229 228 228 224
nan nan nan nan nan nan nan nan nan nan nan nan nan nan nan nan nan nan nan nan nan nan nan nan nan nan nan nan nan nan nan nan nan nan nan nan nan nan nan nan nan nan nan nan nan nan nan nan nan 177 179 178 183 192 184 185 191 189 197 215 223 214 214 205 204 212 219 221 217 215 208 210 218 226 226 226 228 230 231 233 233 234 233 232 237 244
nan nan nan nan nan nan nan nan nan nan nan nan nan nan nan nan nan nan nan nan nan nan nan nan nan nan nan nan nan nan nan nan nan nan nan nan nan nan nan nan nan nan nan nan nan nan nan nan nan nan 178 178 179 188 187 nan 189 189 198 204 217 226 215 209 209 212 214 214 217 216 217 223 213 215 221 225 227 228 230 231 231 232 232 234 240 244
nan nan nan nan nan nan nan nan nan nan nan nan nan nan nan nan nan nan nan nan nan nan nan nan nan nan nan nan nan nan nan nan nan nan nan nan nan nan nan nan nan nan nan nan nan nan nan nan nan nan 178 178 177 186 187 184 186 188 197 202 207 211 208 208 216 216 212 215 211 211 217 219 219 219 219 222 224 226 228 230 229 229 230 235 238 242
nan nan nan nan nan nan nan nan nan nan nan nan nan nan nan nan nan nan nan nan nan nan nan nan nan nan nan nan nan nan nan nan nan nan nan nan nan nan nan nan nan nan nan nan nan nan nan nan nan nan 179 179 179 186 187 184 187 187 194 201 201 209 217 214 216 214 210 214 214 211 215 218 219 220 221 224 226 225 224 226 229 230 228 231 234 239
nan nan nan nan nan nan nan nan nan nan nan nan nan nan nan nan nan nan nan nan nan nan nan nan nan nan nan nan nan nan nan nan nan nan nan nan nan nan nan nan nan nan 127 nan nan 181 nan nan nan nan 180 181 181 186 189 187 188 190 194 200 200 198 nan 216 217 214 209 206 213 214 214 216 217 218 220 226 230 230 226 225 225 226 229 229 233 235
nan nan nan nan nan nan nan nan nan nan nan nan nan nan nan nan nan nan nan nan nan nan nan nan nan nan nan nan nan nan nan nan nan nan nan nan nan nan nan nan nan nan nan nan 180 192 nan nan nan 186 186 180 181 189 192 188 188 189 191 200 197 nan 204 208 211 210 213 211 211 214 214 214 216 218 220 221 225 226 225 224 223 223 226 229 235 226
nan nan nan nan nan nan nan nan nan nan nan nan nan nan nan nan nan nan nan nan nan nan nan nan nan nan nan nan nan nan nan nan nan nan nan nan nan nan nan nan nan nan 175 nan 177 202 nan nan nan 190 182 176 180 192 196 192 190 190 190 199 197 nan 201 207 203 201 207 217 219 215 218 217 219 220 221 222 220 221 223 224 223 223 225 225 226 216
nan nan nan nan nan nan nan nan nan nan nan nan nan nan nan nan nan nan nan nan nan nan nan nan nan nan nan nan nan nan nan nan nan nan nan nan nan nan nan nan nan nan nan 172 nan nan 202 204 193 184 175 176 186 193 196 194 193 192 192 195 203 199 201 204 201 200 199 210 218 218 222 220 222 220 222 224 226 224 224 223 221 223 228 226 223 214
nan nan nan nan nan nan nan nan nan nan nan nan nan nan nan nan nan nan nan nan nan nan nan nan nan nan nan nan nan nan nan nan nan nan nan nan nan nan nan nan nan nan nan nan nan nan nan nan 182 173 178 185 186 191 194 197 196 195 196 204 204 196 199 198 200 200 201 213 214 221 224 222 221 224 219 220 223 226 227 226 225 222 224 228 228 227
nan nan nan nan nan nan nan nan nan nan nan nan nan nan nan nan nan nan nan nan nan nan nan nan nan nan nan nan nan nan nan nan nan nan nan nan nan nan nan nan nan nan nan nan nan nan nan nan nan 168 183 183 185 187 196 199 200 199 203 204 201 200 198 195 192 194 209 210 217 219 220 223 224 225 220 219 220 223 225 224 223 221 222 223 228 230
nan nan nan nan nan nan nan nan nan nan nan nan nan nan nan nan nan nan nan nan nan nan nan nan nan nan nan nan nan nan nan nan nan nan nan nan nan nan nan nan nan nan nan nan nan nan nan nan 164 nan 170 189 189 192 196 200 200 199 199 201 202 201 197 193 193 191 209 217 209 218 225 230 231 227 221 220 220 225 225 226 225 221 220 220 223 225
nan nan nan nan nan nan nan nan nan nan nan nan nan nan nan nan nan nan nan nan nan nan nan nan nan nan nan nan nan nan nan nan nan nan nan nan nan nan nan nan nan nan nan nan nan nan nan 164 164 nan nan 190 194 192 197 199 198 197 200 200 200 200 199 196 189 201 204 216 215 218 220 229 232 227 226 225 223 222 225 225 226 225 220 218 221 227
nan nan nan nan nan nan nan nan nan nan nan nan nan nan nan nan nan nan nan nan nan nan nan nan nan nan nan nan nan nan nan nan nan nan nan nan nan nan nan nan nan nan nan nan nan nan nan nan nan nan nan 190 191 198 195 197 201 203 201 200 201 204 202 202 197 199 212 196 203 230 226 229 230 227 224 224 225 224 224 227 227 226 228 224 220 225
nan nan nan nan nan nan nan nan nan nan nan nan nan nan nan nan nan nan nan nan nan nan nan nan nan nan nan nan nan nan nan nan nan nan nan nan nan nan nan nan nan nan nan nan nan 170 174 180 186 185 179 nan 190 193 195 201 202 204 200 199 201 207 208 204 204 210 207 219 204 217 234 235 235 229 224 225 223 222 223 225 225 227 229 231 233 230
nan nan nan nan nan nan nan nan nan nan nan nan nan nan nan nan nan nan nan nan nan nan nan nan nan nan nan nan nan nan nan nan nan nan nan nan nan nan nan nan nan nan nan nan 175 178 185 185 188 187 nan 187 186 183 187 190 204 203 201 196 196 205 209 208 214 216 211 209 210 218 233 240 238 234 227 222 221 223 224 223 222 225 230 232 236 238
nan nan nan nan nan nan nan nan nan nan nan nan nan nan nan nan nan nan nan nan nan nan nan nan nan nan nan nan nan nan nan nan nan nan nan nan nan nan nan nan nan nan nan nan 177 182 188 190 187 187 187 187 183 181 184 181 191 201 200 197 200 206 211 211 208 217 223 224 220 208 216 233 237 238 230 226 224 221 221 222 222 226 235 236 239 242
nan nan nan nan nan nan nan nan nan nan nan nan nan nan nan nan nan nan nan nan nan nan nan nan nan nan nan nan nan nan nan nan nan nan nan nan nan nan nan nan nan nan nan nan nan nan 184 184 186 185 185 185 183 183 186 192 191 190 191 191 196 205 205 207 205 216 224 225 228 231 222 226 229 231 231 229 227 224 221 220 221 227 234 239 244 244
nan nan nan nan nan nan nan nan nan nan nan nan nan nan nan nan nan nan nan nan nan nan nan nan nan nan nan nan nan nan nan nan nan nan nan nan nan nan nan nan nan nan nan nan nan nan 180 185 185 184 184 184 184 184 188 191 192 192 193 190 191 198 201 201 209 214 214 218 220 225 237 232 229 230 231 231 230 229 226 224 226 223 228 239 233 233
nan nan nan nan nan nan nan nan nan nan nan nan nan nan nan nan nan nan nan nan nan nan nan nan nan nan nan nan nan nan nan nan nan nan nan nan nan nan nan nan nan nan nan nan nan nan nan nan 186 188 188 187 184 185 187 189 192 190 191 190 190 194 205 204 207 203 206 214 221 228 242 239 231 230 234 232 232 233 233 231 226 226 227 231 232 232